Weather History for KFAT - October, 2014

Change the Weather History Date:

Thursday, October 16, 2014

  Actual Average Record
Temperature  
Mean Temperature 68 °F 66 °F  
Max Temperature 78 °F 80 °F 96 °F (1961)
Min Temperature 58 °F 53 °F 36 °F (1966)
Degree Days  
Heating Degree Days 0    
Month to date heating degree days 0  
Since 1 July heating degree days 0  
Cooling Degree Days 3    
Month to date cooling degree days 194  
Year to date cooling degree days 2894  
Growing Degree Days 18 (Base 50)    
Moisture  
Dew Point 50 °F    
Average Humidity 56    
Maximum Humidity 77    
Minimum Humidity 35    
Precipitation  
Precipitation 0.00 in 0.02 in 0.42 in (1963)
Month to date precipitation 0.00 0.22  
Year to date precipitation 4.27 8.25  
Since 1 July precipitation 0.19 0.41  
Snow  
Snow 0.00 in - - ()
Month to date snowfall 0.0  
Since 1 July snowfall 0.0  
Since 1 September snowfall 0.0  
Snow Depth 0.00 in    
Sea Level Pressure  
Sea Level Pressure 29.96 in    
Wind  
Wind Speed 4 mph (NW)    
Max Wind Speed 12 mph    
Max Gust Speed 16 mph    
Visibility 10 miles    
Events      
T = Trace of Precipitation, MM = Missing Value Source: NWS Daily Summary

Daily Weather History Graph

Daily Weather History Graph

Search for Another Location

Airport or City:

Trip Planner

Search our weather history database for the weather conditions in past years. The results will help you decide how hot, cold, wet, or windy it might be!

Date:

Astronomy

Oct. 16, 2014 Rise Set
Actual Time 7:07 AM PDT 6:20 PM PDT
Civil Twilight 6:41 AM PDT 6:46 PM PDT
Nautical Twilight 6:11 AM PDT 7:17 PM PDT
Astronomical Twilight 5:41 AM PDT 7:46 PM PDT
Moon 12:31 AM PDT (10/16) 2:26 PM PDT (10/16)
Length of Visible Light 12h 05m
Length of Day
11h 13m
Last Quarter, 41% of the Moon is Illuminated
Oct 16
Last Quarter
Oct 23
New
Oct 30
First Quarter
Nov 6
Full
Nov 14
Last Quarter

Hourly Weather History & Observations

Time (PDT) Temp. Dew Point Humidity Pressure Visibility Wind Dir Wind Speed Gust Speed Precip Events Conditions
12:53 AM 64.0 °F 51.1 °F 63% 29.99 in 10.0 mi NW 5.8 mph - N/A   Partly Cloudy
1:53 AM 62.1 °F 51.1 °F 67% 29.99 in 10.0 mi WNW 6.9 mph - N/A   Clear
2:53 AM 61.0 °F 52.0 °F 72% 29.99 in 10.0 mi West 10.4 mph - N/A   Clear
3:53 AM 61.0 °F 51.1 °F 70% 29.98 in 10.0 mi NW 8.1 mph - N/A   Mostly Cloudy
4:53 AM 60.1 °F 51.1 °F 72% 29.99 in 10.0 mi NW 10.4 mph - N/A   Mostly Cloudy
5:53 AM 59.0 °F 51.1 °F 75% 29.99 in 10.0 mi NNW 3.5 mph - N/A   Scattered Clouds
6:53 AM 57.9 °F 50.0 °F 75% 30.00 in 10.0 mi West 3.5 mph - N/A   Scattered Clouds
7:53 AM 60.1 °F 51.1 °F 72% 30.01 in 10.0 mi WSW 3.5 mph - N/A   Overcast
8:53 AM 63.0 °F 51.1 °F 65% 30.03 in 10.0 mi Calm Calm - N/A   Overcast
9:53 AM 66.9 °F 51.1 °F 57% 30.03 in 10.0 mi Calm Calm - N/A   Overcast
10:53 AM 69.1 °F 50.0 °F 51% 30.01 in 10.0 mi Calm Calm - N/A   Overcast
11:53 AM 73.9 °F 50.0 °F 43% 30.01 in 10.0 mi West 5.8 mph - N/A   Overcast
12:53 PM 73.9 °F 50.0 °F 43% 29.99 in 10.0 mi Variable 3.5 mph - N/A   Overcast
1:53 PM 75.9 °F 48.9 °F 38% 29.96 in 10.0 mi WNW 4.6 mph - N/A   Overcast
2:53 PM 78.1 °F 48.9 °F 36% 29.94 in 10.0 mi NW 5.8 mph - N/A   Overcast
3:53 PM 77.0 °F 48.0 °F 36% 29.93 in 10.0 mi West 4.6 mph - N/A   Mostly Cloudy
4:53 PM 77.0 °F 48.0 °F 36% 29.92 in 8.0 mi NNW 6.9 mph - N/A   Mostly Cloudy
5:53 PM 75.9 °F 48.9 °F 38% 29.91 in 10.0 mi North 3.5 mph - N/A   Mostly Cloudy
6:53 PM 75.0 °F 48.9 °F 40% 29.91 in 10.0 mi Calm Calm - N/A   Mostly Cloudy
7:53 PM 71.6 °F 48.2 °F 43% 29.92 in 10.0 mi Calm Calm - N/A   Mostly Cloudy
8:53 PM 71.1 °F 50.0 °F 47% 29.91 in 10.0 mi Calm Calm - N/A   Mostly Cloudy
9:53 PM 69.1 °F 51.1 °F 53% 29.91 in 10.0 mi Calm Calm - N/A   Mostly Cloudy
10:53 PM 68.0 °F 51.1 °F 55% 29.92 in 10.0 mi NW 4.6 mph - N/A   Mostly Cloudy
11:53 PM 66.0 °F 51.1 °F 59% 29.93 in 10.0 mi Calm Calm - N/A   Mostly Cloudy